Back to catalog

OPS 4682 DEB

LostPO
NORAD 38447·DEBRIS·🇺🇸 United States

Launched Apr 3, 1965 from Vandenberg Space Force Base

Loading…

Next Passes (next 24 hours)

TLE

StaleSource: Space-Track

Epoch: Jul 16, 2014, 16:08 UTC

1 38447U 65027FC  14197.67233814  .00000140  00000-0  10000-3 0  9991
2 38447 090.2901 255.5260 0033867 118.9367 241.5750 12.91900399531710

Track OPS 4682 DEB in real time with AllMySat

Download on the App Store